Montevideo, MN

1:36 AM CDT on March 28, 2017 (GMT -0500)
Montevideo-Chippewa County

Weather History for KMVE - January, 2013

Change the Weather History Date:

Sunday, January 27, 2013

  Actual Average Record
Temperature  
Mean Temperature 24 °F -  
Max Temperature 32 °F 20 °F 51 °F (1989)
Min Temperature 17 °F 0 °F -22 °F (1950)
Degree Days  
Heating Degree Days 40    
Moisture  
Dew Point 25 °F    
Average Humidity 91    
Maximum Humidity 100    
Minimum Humidity 79    
Precipitation  
Precipitation 0.02 in - - ()
Sea Level Pressure  
Sea Level Pressure 29.84 in    
Wind  
Wind Speed 9 mph (SSE)    
Max Wind Speed 14 mph    
Max Gust Speed -    
Visibility 8 miles    
Events Rain , Snow    
Averages and records for this station are not official NWS values.
T = Trace of Precipitation, MM = Missing Value Source: NWS Daily Summary

Daily Weather History Graph

Daily Weather History Graph

Search for Another Location

Airport or City:

Trip Planner

Search our weather history database for the weather conditions in past years. The results will help you decide how hot, cold, wet, or windy it might be!

Date:

Astronomy

Jan. 27, 2013 Rise Set
Actual Time 7:47 AM CST 5:24 PM CST
Civil Twilight 7:16 AM CST 5:55 PM CST
Nautical Twilight 6:40 AM CST 6:31 PM CST
Astronomical Twilight 6:05 AM CST 7:05 PM CST
Moon 6:24 PM CST (1/27) 7:37 AM CST (1/27)
Length of Visible Light 10h 39m
Length of Day
9h 36m
Full, 100% of the Moon is Illuminated
Jan 27
Full
Feb 3
Last Quarter
Feb 10
New
Feb 17
First Quarter
Feb 25
Full

Hourly Weather History & Observations

Time (CST) Temp. Windchill Dew Point Humidity Pressure Visibility Wind Dir Wind Speed Gust Speed Precip Events Conditions
12:14 AM 17.6 °F 6.4 °F 12.2 °F 79% 29.98 in 10.0 mi SSE 9.2 mph - N/A   Clear
12:34 AM 17.6 °F 6.4 °F 14.0 °F 86% 29.98 in 10.0 mi SSE 9.2 mph - N/A   Clear
12:54 AM 19.4 °F 7.9 °F 14.0 °F 80% 29.97 in 10.0 mi South 10.4 mph - N/A   Clear
1:14 AM 19.4 °F 8.6 °F 15.8 °F 86% 29.96 in 10.0 mi South 9.2 mph - N/A   Clear
1:34 AM 21.2 °F 10.1 °F 15.8 °F 80% 29.95 in 10.0 mi South 10.4 mph - N/A   Clear
1:54 AM 19.4 °F 9.5 °F 15.8 °F 86% 29.95 in 10.0 mi South 8.1 mph - N/A   Clear
2:14 AM 21.2 °F 10.9 °F 15.8 °F 80% 29.95 in 10.0 mi South 9.2 mph - N/A   Clear
2:34 AM 21.2 °F 10.1 °F 15.8 °F 80% 29.95 in 10.0 mi South 10.4 mph - N/A   Clear
2:54 AM 21.2 °F 10.1 °F 17.6 °F 86% 29.94 in 10.0 mi South 10.4 mph - N/A   Clear
3:14 AM 23.0 °F 11.7 °F 17.6 °F 80% 29.93 in 10.0 mi South 11.5 mph - N/A   Clear
3:34 AM 23.0 °F 12.4 °F 17.6 °F 80% 29.92 in 10.0 mi South 10.4 mph - N/A   Clear
3:54 AM 23.0 °F 13.1 °F 17.6 °F 80% 29.92 in 10.0 mi South 9.2 mph - N/A   Clear
4:14 AM 21.2 °F 10.9 °F 17.6 °F 86% 29.91 in 10.0 mi South 9.2 mph - N/A   Clear
4:34 AM 23.0 °F 13.1 °F 19.4 °F 86% 29.91 in 10.0 mi South 9.2 mph - N/A   Clear
4:54 AM 23.0 °F 13.1 °F 19.4 °F 86% 29.90 in 10.0 mi South 9.2 mph - N/A   Clear
5:14 AM 23.0 °F 13.9 °F 19.4 °F 86% 29.90 in 10.0 mi SSE 8.1 mph - N/A   Clear
5:34 AM 21.2 °F 12.6 °F 17.6 °F 86% 29.90 in 10.0 mi SSE 6.9 mph - N/A   Clear
5:54 AM 23.0 °F 13.9 °F 17.6 °F 80% 29.90 in 10.0 mi SSE 8.1 mph - N/A   Clear
6:14 AM 23.0 °F 13.9 °F 19.4 °F 86% 29.89 in 10.0 mi SSE 8.1 mph - N/A   Clear
6:34 AM 23.0 °F 13.9 °F 19.4 °F 86% 29.89 in 10.0 mi SSE 8.1 mph - N/A   Clear
6:54 AM 24.8 °F 16.1 °F 19.4 °F 80% 29.90 in 10.0 mi South 8.1 mph - N/A   Clear
7:14 AM 24.8 °F 15.3 °F 19.4 °F 80% 29.89 in 10.0 mi South 9.2 mph - N/A   Clear
7:34 AM 24.8 °F 15.3 °F 19.4 °F 80% 29.89 in 10.0 mi SSE 9.2 mph - N/A   Clear
7:54 AM 24.8 °F 16.1 °F 19.4 °F 80% 29.89 in 10.0 mi SSE 8.1 mph - N/A   Clear
8:14 AM 24.8 °F 16.9 °F 19.4 °F 80% 29.88 in 10.0 mi SSE 6.9 mph - N/A   Clear
8:34 AM 24.8 °F 15.3 °F 21.2 °F 86% 29.88 in 10.0 mi SSE 9.2 mph - N/A   Clear
8:54 AM 24.8 °F 16.9 °F 21.2 °F 86% 29.87 in 10.0 mi SSE 6.9 mph - N/A   Clear
9:14 AM 26.6 °F 17.5 °F 21.2 °F 80% 29.87 in 10.0 mi SSE 9.2 mph - N/A   Clear
9:34 AM 26.6 °F 18.2 °F 21.2 °F 80% 29.86 in 10.0 mi SSE 8.1 mph - N/A   Clear
9:54 AM 26.6 °F 17.5 °F 21.2 °F 80% 29.86 in 10.0 mi SSE 9.2 mph - N/A   Scattered Clouds
10:14 AM 28.4 °F 19.1 °F 23.0 °F 80% 29.86 in 10.0 mi SSE 10.4 mph - N/A   Clear
10:34 AM 28.4 °F 18.5 °F 24.8 °F 86% 29.85 in 10.0 mi South 11.5 mph - N/A   Scattered Clouds
10:54 AM 30.2 °F 20.8 °F 24.8 °F 80% 29.85 in 10.0 mi South 11.5 mph - N/A   Mostly Cloudy
11:14 AM 30.2 °F 20.2 °F 24.8 °F 80% 29.85 in 10.0 mi South 12.7 mph - N/A   Mostly Cloudy
11:34 AM 30.2 °F 20.2 °F 24.8 °F 80% 29.85 in 10.0 mi South 12.7 mph - N/A   Mostly Cloudy
11:54 AM 30.2 °F 20.2 °F 26.6 °F 86% 29.84 in 10.0 mi South 12.7 mph - N/A   Overcast
12:14 PM 30.2 °F 20.8 °F 28.4 °F 93% 29.84 in 10.0 mi South 11.5 mph - N/A   Overcast
12:34 PM 30.2 °F 20.8 °F 28.4 °F 93% 29.82 in 10.0 mi SSE 11.5 mph - N/A   Light Freezing Rain
12:54 PM 32.0 °F 23.6 °F 30.2 °F 93% 29.82 in 10.0 mi South 10.4 mph - N/A   Light Drizzle
1:14 PM 32.0 °F 23.6 °F 30.2 °F 93% 29.81 in 7.0 mi SSE 10.4 mph - N/A   Light Drizzle
1:34 PM 32.0 °F 23.6 °F 30.2 °F 93% 29.80 in 7.0 mi SSE 10.4 mph - N/A   Overcast
1:54 PM 32.0 °F 22.5 °F 30.2 °F 93% 29.79 in 5.0 mi SSE 12.7 mph - N/A   Light Drizzle
2:14 PM 32.0 °F 22.5 °F 32.0 °F 100% 29.79 in 7.0 mi SSE 12.7 mph - N/A   Light Drizzle
2:34 PM 32.0 °F 22.1 °F 32.0 °F 100% 29.79 in 7.0 mi South 13.8 mph - N/A   Overcast
2:54 PM 32.0 °F 22.5 °F 32.0 °F 100% 29.78 in 7.0 mi South 12.7 mph - N/A   Light Drizzle
3:14 PM 32.0 °F 22.5 °F 32.0 °F 100% 29.78 in 7.0 mi SSE 12.7 mph - N/A   Light Drizzle
3:34 PM 32.0 °F 23.0 °F 32.0 °F 100% 29.78 in 7.0 mi SSE 11.5 mph - N/A   Light Drizzle
3:54 PM 32.0 °F 23.6 °F 32.0 °F 100% 29.78 in 7.0 mi SSE 10.4 mph - N/A   Overcast
4:14 PM 32.0 °F 23.0 °F 32.0 °F 100% 29.78 in 10.0 mi SSE 11.5 mph - N/A   Overcast
4:34 PM 32.0 °F 23.0 °F 32.0 °F 100% 29.78 in 7.0 mi South 11.5 mph - N/A Snow Snow
4:54 PM 32.0 °F 23.6 °F 32.0 °F 100% 29.78 in 7.0 mi SSE 10.4 mph - N/A   Light Drizzle
5:14 PM 32.0 °F 24.2 °F 32.0 °F 100% 29.78 in 7.0 mi SSE 9.2 mph - N/A   Light Drizzle
5:34 PM 32.0 °F 24.2 °F 32.0 °F 100% 29.78 in 7.0 mi SSE 9.2 mph - N/A   Light Drizzle
5:54 PM 32.0 °F 24.8 °F 32.0 °F 100% 29.78 in 7.0 mi SSE 8.1 mph - N/A   Light Drizzle
6:14 PM 32.0 °F 24.8 °F 32.0 °F 100% 29.79 in 5.0 mi SSE 8.1 mph - N/A   Drizzle
6:34 PM 32.0 °F 24.8 °F 32.0 °F 100% 29.79 in 4.0 mi SSE 8.1 mph - 0.01 in Rain Light Rain
6:54 PM 32.0 °F 25.6 °F 32.0 °F 100% 29.79 in 4.0 mi SE 6.9 mph - 0.02 in Rain Rain
7:14 PM 32.0 °F 24.8 °F 32.0 °F 100% 29.79 in 5.0 mi SE 8.1 mph - N/A   Drizzle
7:34 PM 32.0 °F 25.6 °F 32.0 °F 100% 29.78 in 5.0 mi SSE 6.9 mph - N/A   Light Drizzle
7:54 PM 32.0 °F 24.8 °F 32.0 °F 100% 29.78 in 5.0 mi SSE 8.1 mph - N/A   Drizzle
8:14 PM 32.0 °F 24.8 °F 32.0 °F 100% 29.78 in 5.0 mi SSE 8.1 mph - N/A   Overcast
8:34 PM 32.0 °F 24.2 °F 32.0 °F 100% 29.78 in 5.0 mi South 9.2 mph - N/A   Overcast
8:54 PM 32.0 °F 24.8 °F 32.0 °F 100% 29.77 in 5.0 mi South 8.1 mph - N/A   Light Drizzle
9:14 PM 32.0 °F 24.2 °F 32.0 °F 100% 29.77 in 4.0 mi South 9.2 mph - N/A   Drizzle
9:34 PM 32.0 °F 25.6 °F 32.0 °F 100% 29.77 in 5.0 mi South 6.9 mph - N/A   Light Drizzle
9:54 PM 32.0 °F 26.4 °F 32.0 °F 100% 29.77 in 5.0 mi SSE 5.8 mph - N/A   Overcast
10:14 PM 32.0 °F 26.4 °F 32.0 °F 100% 29.77 in 5.0 mi South 5.8 mph - N/A Rain Light Rain
10:34 PM 32.0 °F 28.7 °F 32.0 °F 100% 29.78 in 5.0 mi SSW 3.5 mph - N/A   Light Drizzle
10:54 PM 32.0 °F - 32.0 °F 100% 29.79 in 5.0 mi Calm Calm - N/A   Overcast
11:14 PM 32.0 °F - 32.0 °F 100% 29.78 in 5.0 mi Calm Calm - N/A   Overcast
11:34 PM 32.0 °F - 32.0 °F 100% 29.79 in 4.0 mi Calm Calm - N/A   Overcast
11:54 PM 32.0 °F - 32.0 °F 100% 29.79 in 4.0 mi Calm Calm - N/A   Overcast